Weather in Shyrmivka

Ukraine / Vinnytsia Region     49°33′49″N   29°05′35″E
temp.,
°C
wind,
m/s
gust,
m/s
humid.,
%
clouds,
%
prec.,
mm/h
press.,
hPa
HPBL,
m
12 april, mon
mon1200:00+7ese33620 0.0 102730
03:00+6se22610 0.0 102612
06:00+4ene22615 0.0 102510
09:00+9ene345382 0.0 1024225
12:00+13ene224399 0.0 1023940
15:00+15ene223975 0.0 10211327
18:00+14ne2244100 0.0 10201167
21:00+8ese3678100 0.0 1022125
13 april, tue
tue1300:00+7sse228282 0.0 102114
03:00+6nw117769 0.0 102110
06:00+6nne2278100 0.0 102112
09:00+8ne1274100 0.0 102093
12:00+9ene2272100 0.0 1019192
15:00+9s1180100 0.2 1019170
18:00+8ese2294100 0.9 1018115
21:00+8se3598100 1.6 1018273
14 april, wed
wed1400:00+7se3697100 0.1 1017333
03:00+7se3798100 0.1 1016423
06:00+7sse4998100 0.6 1015574
09:00+7s41093100 1.3 1016523
12:00+7s4892100 0.4 1016423
15:00+12s4663100 0.9 10141451
18:00+11sse457385 0.3 1014711
21:00+8sse3588100 0.4 101591
15 april, thu
thu1500:00+8s2391100 0.3 1015127
03:00+7sse2388100 0.3 101587
06:00+7se1190100 0.3 101524
09:00+7ne2395100 2.9 1015140
12:00+8nne2491100 0.8 1015246
15:00+9nnw2488100 0.9 1014298
18:00+8nw4692100 0.1 1014305
21:00+7nw489683 0.1 1015284
16 april, fri
fri1600:00+5nw589694 0.0 1015285
03:00+5nw5996100 0.1 1014311
06:00+5nw51096100 0.0 1014351
09:00+5nw71093100 0.0 1015442
12:00+7nw71086100 0.0 1015614
15:00+7nw7985100 0.0 1015708
18:00+4wnw71296100 0.4 1016483
21:00+4wnw71396100 5.6 1016430